When you browse on this site, cookies collect data to enhance your experience and personalize the content and advertising you see.
Visit our Privacy Policy to learn more. By continuing to use the site, you agree to this use of cookies and data.
  • In Romania
  • List of Countries
  • For 7 days
  • Water Temperature
  • Satellite Maps
  • Weather Map
  • Weather Widgets
  • user-avatar
    Login

    Hourly Weather Hannover

    Today, 27 May, Monday

    Time Temperature Precipitation Wind Pressure Humidity
    00:00 +15°C° 0 mm 5 mps 751 mmHg 82%
    01:00 +14°C° 0 mm 5 mps 750 mmHg 83%
    02:00 +14°C° 0.2 mm 5 mps 750 mmHg 86%
    03:00 +14°C° 0.2 mm 5 mps 750 mmHg 88%
    04:00 +14°C° 0.2 mm 5 mps 750 mmHg 91%
    05:00 +14°C° 0.3 mm 4 mps 750 mmHg 92%
    06:00 +14°C° 0.3 mm 4 mps 750 mmHg 93%
    07:00 +14°C° 0.3 mm 3 mps 750 mmHg 94%
    08:00 +16°C° 0.1 mm 3 mps 750 mmHg 88%
    09:00 +17°C° 0.1 mm 3 mps 751 mmHg 82%
    10:00 +17°C° 0.1 mm 3 mps 751 mmHg 75%
    11:00 +18°C° 0.1 mm 4 mps 751 mmHg 71%
    12:00 +19°C° 0.1 mm 4 mps 751 mmHg 67%
    13:00 +20°C° 0.1 mm 4 mps 750 mmHg 62%
    14:00 +20°C° 0.1 mm 4 mps 750 mmHg 62%
    15:00 +20°C° 0.1 mm 4 mps 750 mmHg 62%
    16:00 +20°C° 0.1 mm 4 mps 750 mmHg 62%
    17:00 +19°C° 0.1 mm 4 mps 750 mmHg 66%
    18:00 +17°C° 0.1 mm 3 mps 750 mmHg 70%
    19:00 +16°C° 0.1 mm 3 mps 750 mmHg 74%
    20:00 +15°C° 0 mm 2 mps 750 mmHg 75%
    21:00 +14°C° 0 mm 2 mps 750 mmHg 76%
    22:00 +13°C° 0 mm 1 mps 750 mmHg 77%
    23:00 +13°C° 0 mm 1 mps 750 mmHg 79%

    Tomorrow, 28 May, Tuesday

    Time Temperature Precipitation Wind Pressure Humidity
    00:00 +12°C° 0 mm 1 mps 750 mmHg 81%
    01:00 +12°C° 0 mm 1 mps 750 mmHg 83%
    02:00 +11°C° 0 mm 1 mps 750 mmHg 85%
    03:00 +10°C° 0 mm 1 mps 750 mmHg 87%
    04:00 +9°C° 0 mm 1 mps 750 mmHg 90%
    05:00 +10°C° 0 mm 0 mps 750 mmHg 86%
    06:00 +11°C° 0 mm 0 mps 750 mmHg 83%
    07:00 +12°C° 0 mm 0 mps 750 mmHg 79%
    08:00 +13°C° 0.2 mm 1 mps 750 mmHg 80%
    09:00 +13°C° 0.2 mm 2 mps 750 mmHg 81%
    10:00 +13°C° 0.2 mm 2 mps 750 mmHg 82%
    11:00 +12°C° 0.4 mm 3 mps 750 mmHg 83%
    12:00 +12°C° 0.4 mm 3 mps 750 mmHg 84%
    13:00 +12°C° 0.4 mm 3 mps 750 mmHg 85%
    14:00 +13°C° 0 mm 3 mps 751 mmHg 79%
    15:00 +14°C° 0 mm 3 mps 751 mmHg 72%
    16:00 +15°C° 0 mm 4 mps 751 mmHg 66%
    17:00 +14°C° 0 mm 4 mps 752 mmHg 67%
    18:00 +14°C° 0 mm 4 mps 753 mmHg 69%
    19:00 +13°C° 0 mm 4 mps 753 mmHg 70%
    20:00 +12°C° 0 mm 4 mps 754 mmHg 70%
    21:00 +10°C° 0 mm 4 mps 755 mmHg 70%
    22:00 +9°C° 0 mm 3 mps 755 mmHg 69%
    23:00 +8°C° 0 mm 3 mps 756 mmHg 72%

    Day after tomorrow, 29 May, Wednesday

    Time Temperature Precipitation Wind Pressure Humidity
    00:00 +7°C° 0 mm 2 mps 756 mmHg 76%
    01:00 +6°C° 0 mm 2 mps 757 mmHg 79%
    02:00 +6°C° 0 mm 2 mps 757 mmHg 82%
    03:00 +6°C° 0 mm 1 mps 757 mmHg 84%
    04:00 +5°C° 0 mm 1 mps 758 mmHg 87%
    05:00 +7°C° 0 mm 1 mps 758 mmHg 82%
    06:00 +8°C° 0 mm 1 mps 758 mmHg 76%
    07:00 +9°C° 0 mm 1 mps 759 mmHg 71%
    08:00 +11°C° 0 mm 1 mps 759 mmHg 66%
    09:00 +12°C° 0 mm 1 mps 759 mmHg 61%
    10:00 +14°C° 0 mm 1 mps 759 mmHg 56%
    11:00 +15°C° 0 mm 2 mps 759 mmHg 54%
    12:00 +16°C° 0 mm 2 mps 759 mmHg 51%
    13:00 +17°C° 0 mm 2 mps 759 mmHg 48%
    14:00 +17°C° 0 mm 2 mps 758 mmHg 49%
    15:00 +18°C° 0 mm 2 mps 758 mmHg 50%
    16:00 +18°C° 0 mm 2 mps 758 mmHg 51%
    17:00 +17°C° 0 mm 2 mps 757 mmHg 57%
    18:00 +17°C° 0 mm 3 mps 757 mmHg 63%
    19:00 +16°C° 0 mm 3 mps 757 mmHg 68%
    20:00 +14°C° 0 mm 3 mps 757 mmHg 70%
    21:00 +14°C° 0 mm 4 mps 757 mmHg 71%
    22:00 +13°C° 0 mm 4 mps 757 mmHg 72%
    23:00 +13°C° 0 mm 4 mps 757 mmHg 72%

    30 May, Thursday

    Time Temperature Precipitation Wind Pressure Humidity
    00:00 +13°C° 0 mm 5 mps 756 mmHg 72%
    01:00 +13°C° 0 mm 5 mps 756 mmHg 72%
    02:00 +12°C° 0 mm 5 mps 756 mmHg 75%
    03:00 +12°C° 0 mm 5 mps 756 mmHg 78%
    04:00 +12°C° 0 mm 5 mps 755 mmHg 80%
    05:00 +12°C° 0 mm 5 mps 755 mmHg 82%
    06:00 +13°C° 0 mm 5 mps 756 mmHg 83%
    07:00 +14°C° 0 mm 5 mps 756 mmHg 85%
    08:00 +15°C° 0.1 mm 5 mps 756 mmHg 84%
    09:00 +15°C° 0.1 mm 5 mps 756 mmHg 83%
    10:00 +16°C° 0.1 mm 5 mps 757 mmHg 82%
    11:00 +16°C° 0 mm 5 mps 757 mmHg 77%
    12:00 +17°C° 0 mm 5 mps 757 mmHg 73%
    13:00 +19°C° 0 mm 6 mps 757 mmHg 68%
    14:00 +19°C° 0 mm 5 mps 757 mmHg 66%
    15:00 +19°C° 0 mm 4 mps 757 mmHg 65%
    16:00 +20°C° 0 mm 4 mps 757 mmHg 64%
    17:00 +20°C° 0 mm 3 mps 757 mmHg 67%
    18:00 +19°C° 0 mm 2 mps 757 mmHg 71%
    19:00 +19°C° 0 mm 2 mps 757 mmHg 74%
    20:00 +18°C° 0.2 mm 2 mps 757 mmHg 81%
    21:00 +17°C° 0.2 mm 3 mps 757 mmHg 87%
    22:00 +15°C° 0.2 mm 4 mps 757 mmHg 93%
    23:00 +15°C° 1.5 mm 4 mps 757 mmHg 94%

    31 May, Friday

    Time Temperature Precipitation Wind Pressure Humidity
    00:00 +15°C° 1.5 mm 5 mps 757 mmHg 94%
    01:00 +15°C° 1.5 mm 5 mps 756 mmHg 95%
    02:00 +15°C° 1.4 mm 5 mps 756 mmHg 95%
    03:00 +15°C° 1.4 mm 5 mps 756 mmHg 94%
    04:00 +14°C° 1.4 mm 5 mps 756 mmHg 94%
    05:00 +14°C° 0.3 mm 5 mps 756 mmHg 94%
    06:00 +14°C° 0.3 mm 5 mps 756 mmHg 94%
    07:00 +14°C° 0.3 mm 5 mps 757 mmHg 94%
    08:00 +14°C° 0.1 mm 5 mps 757 mmHg 92%
    09:00 +13°C° 0.1 mm 5 mps 758 mmHg 91%
    10:00 +12°C° 0.1 mm 5 mps 758 mmHg 89%
    11:00 +12°C° 0 mm 5 mps 759 mmHg 88%
    12:00 +12°C° 0 mm 5 mps 760 mmHg 86%
    13:00 +12°C° 0 mm 5 mps 761 mmHg 85%
    14:00 +12°C° 0.1 mm 5 mps 761 mmHg 81%
    15:00 +13°C° 0.1 mm 4 mps 762 mmHg 78%
    16:00 +13°C° 0.1 mm 4 mps 763 mmHg 74%
    17:00 +13°C° 0 mm 4 mps 763 mmHg 73%
    18:00 +13°C° 0 mm 4 mps 764 mmHg 72%
    19:00 +12°C° 0 mm 4 mps 764 mmHg 71%
    20:00 +11°C° 0 mm 3 mps 765 mmHg 75%
    21:00 +9°C° 0 mm 3 mps 765 mmHg 78%
    22:00 +8°C° 0 mm 3 mps 766 mmHg 82%
    23:00 +7°C° 0 mm 2 mps 766 mmHg 85%

    1 June, Saturday

    Time Temperature Precipitation Wind Pressure Humidity
    00:00 +6°C° 0 mm 2 mps 766 mmHg 88%
    01:00 +5°C° 0 mm 2 mps 766 mmHg 92%
    02:00 +5°C° 0 mm 2 mps 766 mmHg 93%
    03:00 +6°C° 0 mm 1 mps 767 mmHg 93%
    04:00 +5°C° 0 mm 1 mps 767 mmHg 94%
    05:00 +7°C° 0 mm 1 mps 767 mmHg 89%
    06:00 +8°C° 0 mm 1 mps 767 mmHg 85%
    07:00 +10°C° 0 mm 1 mps 767 mmHg 80%
    08:00 +11°C° 0 mm 1 mps 767 mmHg 74%
    09:00 +13°C° 0 mm 1 mps 767 mmHg 67%
    10:00 +15°C° 0 mm 1 mps 767 mmHg 60%
    11:00 +16°C° 0 mm 1 mps 767 mmHg 57%
    12:00 +18°C° 0 mm 1 mps 767 mmHg 53%
    13:00 +19°C° 0 mm 1 mps 766 mmHg 50%
    14:00 +19°C° 0 mm 1 mps 766 mmHg 49%
    15:00 +20°C° 0 mm 1 mps 766 mmHg 48%
    16:00 +20°C° 0 mm 1 mps 765 mmHg 47%
    17:00 +19°C° 0 mm 1 mps 765 mmHg 52%
    18:00 +19°C° 0 mm 1 mps 765 mmHg 58%
    19:00 +16°C° 0 mm 0 mps 765 mmHg 63%
    20:00 +15°C° 0 mm 1 mps 765 mmHg 65%
    21:00 +14°C° 0 mm 1 mps 766 mmHg 66%
    22:00 +12°C° 0 mm 1 mps 766 mmHg 68%
    23:00 +12°C° 0 mm 1 mps 766 mmHg 69%
    Show more